Simultaneous Nadir Overpasses (SNOs) Predictions

Prediction of SNOs between NOAA-20 and AQUA Satellite Orbit:

Table of predicted SNOs for the next 14.0 days since TLE Epoch: 6/22/2024
Index Date (NOAA-20) Time (NOAA-20) Lat,Lon (NOAA-20) SZA (NOAA-20 ) Date (AQUA) Time (AQUA) Lat,Lon (AQUA) SZA (AQUA ) Distance(km) Time Diff (sec)
1 06/23/2024 02:29:52 -81.28,-113.22 115.21 06/23/2024 02:30:19 -81.27,-113.32 115.22 1.79 27
2 06/23/2024 03:20:36 81.28, 54.50 64.73 06/23/2024 03:19:40 81.28, 54.55 64.76 0.90 56
3 06/25/2024 14:32:56 81.27,-114.34 64.92 06/25/2024 14:33:55 81.27,-114.26 64.87 1.34 59
4 06/25/2024 15:23:38 -81.29, 54.01 115.23 06/25/2024 15:23:16 -81.29, 53.90 115.20 1.99 22
5 06/28/2024 03:26:42 81.28, 52.84 64.96 06/28/2024 03:26:51 81.28, 52.94 64.93 1.73 9
6 06/28/2024 04:17:25 -81.29,-139.18 115.14 06/28/2024 04:16:13 -81.29,-139.25 115.09 1.13 72
7 06/30/2024 15:29:45 -81.28, 51.92 114.86 06/30/2024 15:30:26 -81.28, 52.05 114.91 2.25 41
8 06/30/2024 16:20:28 81.29,-140.02 65.04 06/30/2024 16:19:47 81.29,-140.21 65.09 3.26 41
9 07/03/2024 03:32:48 81.28, 51.00 65.37 07/03/2024 03:33:59 81.28, 51.08 65.31 1.21 71
10 07/03/2024 04:23:30 -81.29,-140.98 114.74 07/03/2024 04:23:20 -81.29,-141.05 114.72 1.20 10
11 07/05/2024 16:26:33 81.28,-141.95 65.54 07/05/2024 16:26:52 81.28,-142.03 65.54 1.34 19



Historial Predications of SNOs between NOAA-20 and AQUA
